| time (UTC) | temp F | wind direction | speed MPH | gust MPH | rain 1hr in | rain 24hr in | rain mn in | humidity % | barometer mb |
| 20260901185249 | 79 | 133 | 7.0 | 16.0 | 0.00 | 0.00 | 0.00 | 86 | 997.6 |
| 20260901184948 | 79 | 128 | 9.0 | 16.0 | 0.00 | 0.00 | 0.00 | 86 | 997.7 |
| 20260901184739 | 79 | 233 | 7.0 | 13.0 | 0.00 | 0.00 | 0.00 | 86 | 997.5 |
| 20260901184447 | 79 | 68 | 3.0 | 14.0 | 0.00 | 0.00 | 0.00 | 86 | 997.6 |
| 20260901184229 | 79 | 213 | 7.0 | 16.0 | 0.00 | 0.00 | 0.00 | 86 | 997.6 |
| 20260901183948 | 79 | 145 | 7.0 | 16.0 | 0.00 | 0.00 | 0.00 | 86 | 997.6 |
| 20260901183719 | 79 | 161 | 3.0 | 9.0 | 0.00 | 0.00 | 0.00 | 86 | 997.6 |
| 20260901182947 | 79 | 42 | 4.0 | 19.0 | 0.00 | 0.00 | 0.00 | 86 | 997.6 |
| 20260901182659 | 79 | 237 | 10.0 | 19.0 | 0.00 | 0.00 | 0.00 | 86 | 997.6 |
| 20260901182448 | 79 | 158 | 1.0 | 15.0 | 0.00 | 0.00 | 0.00 | 86 | 997.7 |
| 20260901182149 | 79 | 227 | 8.0 | 15.0 | 0.00 | 0.00 | 0.00 | 86 | 997.7 |
| 20260901181947 | 79 | 303 | 7.0 | 15.0 | 0.00 | 0.00 | 0.00 | 86 | 997.8 |
| 20260901181638 | 80 | 234 | 9.0 | 17.0 | 0.00 | 0.00 | 0.00 | 86 | 997.7 |
| 20260901181447 | 80 | 222 | 5.0 | 17.0 | 0.00 | 0.00 | 0.00 | 86 | 997.7 |
| 20260901181129 | 80 | 268 | 6.0 | 12.0 | 0.00 | 0.00 | 0.00 | 85 | 997.7 |
| 20260901180948 | 80 | 233 | 6.0 | 12.0 | 0.00 | 0.00 | 0.00 | 85 | 997.8 |
| 20260901180618 | 80 | 228 | 6.0 | 15.0 | 0.00 | 0.00 | 0.00 | 85 | 997.7 |
| 20260901180447 | 80 | 199 | 8.0 | 15.0 | 0.00 | 0.00 | 0.00 | 85 | 997.7 |
| 20260901180109 | 80 | 182 | 3.0 | 19.0 | 0.00 | 0.00 | 0.00 | 85 | 997.7 |
| 20260901175947 | 80 | 233 | 9.0 | 19.0 | 0.00 | 0.00 | 0.00 | 85 | 997.8 |
| 20260901175558 | 80 | 228 | 6.0 | 10.0 | 0.00 | 0.00 | 0.00 | 85 | 997.8 |
| 20260901175447 | 80 | 293 | 4.0 | 9.0 | 0.00 | 0.00 | 0.00 | 85 | 997.8 |
| 20260901175048 | 80 | 26 | 1.0 | 6.0 | 0.00 | 0.00 | 0.00 | 85 | 997.9 |
| 20260901174947 | 80 | 96 | 4.0 | 6.0 | 0.00 | 0.00 | 0.00 | 85 | 997.9 |
| 20260901174539 | 80 | 182 | 1.0 | 4.0 | 0.00 | 0.00 | 0.00 | 85 | 997.9 |
| 20260901174448 | 80 | 58 | 2.0 | 4.0 | 0.00 | 0.00 | 0.00 | 85 | 997.9 |
| 20260901173947 | 80 | 66 | 2.0 | 5.0 | 0.00 | 0.00 | 0.00 | 85 | 997.9 |
| 20260901173519 | 80 | 169 | 3.0 | 5.0 | 0.00 | 0.00 | 0.00 | 85 | 998.0 |
| 20260901173447 | 80 | 155 | 1.0 | 9.0 | 0.00 | 0.00 | 0.00 | 85 | 997.9 |
| 20260901172947 | 80 | 134 | 6.0 | 9.0 | 0.00 | 0.00 | 0.00 | 85 | 997.9 |
| 20260901172458 | 80 | 157 | 1.0 | 7.0 | 0.00 | 0.00 | 0.00 | 85 | 998.0 |
| 20260901172447 | 80 | 147 | 1.0 | 7.0 | 0.00 | 0.00 | 0.00 | 85 | 998.0 |
| 20260901171950 | 80 | 56 | 2.0 | 6.0 | 0.00 | 0.00 | 0.00 | 85 | 997.9 |
| 20260901171447 | 80 | 144 | 4.0 | 8.0 | 0.00 | 0.00 | 0.00 | 85 | 998.0 |
| 20260901171438 | 80 | 116 | 4.0 | 8.0 | 0.00 | 0.00 | 0.00 | 85 | 997.9 |
| 20260901170947 | 80 | 91 | 1.0 | 5.0 | 0.00 | 0.00 | 0.00 | 85 | 998.0 |
| 20260901170928 | 80 | 76 | 2.0 | 5.0 | 0.00 | 0.00 | 0.00 | 85 | 998.0 |
| 20260901170446 | 80 | 248 | 4.0 | 9.0 | 0.00 | 0.00 | 0.00 | 86 | 998.1 |
| 20260901170418 | 80 | 278 | 3.0 | 9.0 | 0.00 | 0.00 | 0.00 | 86 | 998.1 |
| 20260901165947 | 80 | 254 | 1.0 | 4.0 | 0.00 | 0.00 | 0.00 | 86 | 998.1 |
| 20260901165908 | 80 | 98 | 1.0 | 5.0 | 0.00 | 0.00 | 0.00 | 86 | 998.1 |
| 20260901165446 | 80 | 29 | 3.0 | 6.0 | 0.00 | 0.00 | 0.00 | 86 | 998.3 |
| 20260901165358 | 80 | 305 | 3.0 | 6.0 | 0.00 | 0.00 | 0.00 | 86 | 998.3 |
| 20260901164947 | 80 | 37 | 1.0 | 5.0 | 0.00 | 0.00 | 0.00 | 86 | 998.3 |
| 20260901164848 | 80 | 50 | 3.0 | 7.0 | 0.00 | 0.00 | 0.00 | 86 | 998.3 |
| 20260901164446 | 80 | 44 | 5.0 | 7.0 | 0.00 | 0.00 | 0.00 | 86 | 998.4 |
| 20260901164337 | 80 | 37 | 4.0 | 7.0 | 0.00 | 0.00 | 0.00 | 86 | 998.4 |
| 20260901163946 | 80 | 40 | 0.0 | 4.0 | 0.00 | 0.00 | 0.00 | 86 | 998.5 |
| 20260901163828 | 80 | 29 | 2.0 | 4.0 | 0.00 | 0.00 | 0.00 | 86 | 998.5 |
| 20260901163447 | 80 | 202 | 1.0 | 8.0 | 0.00 | 0.00 | 0.00 | 86 | 998.5 |
| 20260901163318 | 80 | 162 | 5.0 | 8.0 | 0.00 | 0.00 | 0.00 | 86 | 998.6 |
| 20260901162946 | 80 | 211 | 4.0 | 7.0 | 0.00 | 0.00 | 0.00 | 86 | 998.5 |
| 20260901162808 | 80 | 217 | 4.0 | 7.0 | 0.00 | 0.00 | 0.00 | 86 | 998.6 |
| 20260901162446 | 80 | 198 | 0.0 | 6.0 | 0.00 | 0.00 | 0.00 | 86 | 998.6 |
| 20260901161946 | 80 | 143 | 5.0 | 8.0 | 0.00 | 0.00 | 0.00 | 86 | 998.5 |
| 20260901161747 | 80 | 95 | 1.0 | 4.0 | 0.00 | 0.00 | 0.00 | 86 | 998.5 |
| 20260901161446 | 80 | 325 | 1.0 | 4.0 | 0.00 | 0.00 | 0.00 | 87 | 998.6 |
| 20260901161238 | 80 | 18 | 2.0 | 4.0 | 0.00 | 0.00 | 0.00 | 87 | 998.6 |
| 20260901160946 | 80 | 308 | 1.0 | 5.0 | 0.00 | 0.00 | 0.00 | 87 | 998.6 |
| 20260901160728 | 80 | 260 | 3.0 | 10.0 | 0.00 | 0.00 | 0.00 | 87 | 998.7 |
| 20260901160446 | 80 | 250 | 5.0 | 10.0 | 0.00 | 0.00 | 0.00 | 87 | 998.7 |
| 20260901160218 | 80 | 274 | 2.0 | 5.0 | 0.00 | 0.00 | 0.00 | 87 | 998.6 |
| 20260901155946 | 80 | 220 | 1.0 | 3.0 | 0.00 | 0.00 | 0.00 | 87 | 998.7 |
| 20260901155447 | 80 | 9 | 1.0 | 6.0 | 0.00 | 0.00 | 0.00 | 87 | 998.8 |
| 20260901155157 | 80 | 232 | 4.0 | 6.0 | 0.00 | 0.00 | 0.00 | 87 | 998.8 |
| 20260901154946 | 80 | 226 | 3.0 | 5.0 | 0.00 | 0.00 | 0.00 | 87 | 998.8 |
| 20260901154648 | 80 | 207 | 2.0 | 5.0 | 0.00 | 0.00 | 0.00 | 87 | 998.8 |
| 20260901154446 | 80 | 341 | 1.0 | 4.0 | 0.00 | 0.00 | 0.00 | 87 | 998.8 |
| 20260901154137 | 80 | 174 | 1.0 | 6.0 | 0.00 | 0.00 | 0.00 | 87 | 998.8 |
| 20260901153946 | 80 | 137 | 3.0 | 6.0 | 0.00 | 0.00 | 0.00 | 87 | 998.8 |
| 20260901153627 | 80 | 126 | 3.0 | 6.0 | 0.00 | 0.00 | 0.00 | 87 | 998.7 |
| 20260901153446 | 80 | 237 | 3.0 | 4.0 | 0.00 | 0.00 | 0.00 | 87 | 998.6 |
| 20260901153118 | 80 | 256 | 1.0 | 7.0 | 0.00 | 0.00 | 0.00 | 87 | 998.7 |
| 20260901152946 | 80 | 51 | 1.0 | 7.0 | 0.00 | 0.00 | 0.00 | 87 | 998.7 |
| 20260901152607 | 80 | 201 | 3.0 | 5.0 | 0.00 | 0.00 | 0.00 | 87 | 998.6 |
| 20260901152446 | 80 | 240 | 3.0 | 4.0 | 0.00 | 0.00 | 0.00 | 87 | 998.6 |
| 20260901152057 | 80 | 144 | 0.0 | 5.0 | 0.00 | 0.00 | 0.00 | 87 | 998.6 |
| 20260901151946 | 80 | 117 | 2.0 | 5.0 | 0.00 | 0.00 | 0.00 | 87 | 998.6 |
| 20260901151547 | 80 | 196 | 3.0 | 5.0 | 0.00 | 0.00 | 0.00 | 87 | 998.5 |
| 20260901151445 | 80 | 211 | 3.0 | 8.0 | 0.00 | 0.00 | 0.00 | 87 | 998.5 |
| 20260901151037 | 80 | 243 | 5.0 | 9.0 | 0.00 | 0.00 | 0.00 | 87 | 998.6 |
| 20260901150946 | 80 | 246 | 7.0 | 9.0 | 0.00 | 0.00 | 0.00 | 87 | 998.6 |
| 20260901150528 | 80 | 253 | 1.0 | 4.0 | 0.00 | 0.00 | 0.00 | 87 | 998.6 |
| 20260901150446 | 80 | 266 | 0.0 | 3.0 | 0.00 | 0.00 | 0.00 | 87 | 998.6 |
| 20260901150017 | 80 | 241 | 1.0 | 10.0 | 0.00 | 0.00 | 0.00 | 87 | 998.5 |
| 20260901145945 | 80 | 232 | 1.0 | 10.0 | 0.00 | 0.00 | 0.00 | 87 | 998.6 |
| 20260901145507 | 80 | 27 | 1.0 | 7.0 | 0.00 | 0.00 | 0.00 | 87 | 998.6 |
| 20260901145446 | 80 | 15 | 1.0 | 7.0 | 0.00 | 0.00 | 0.00 | 87 | 998.6 |
| 20260901144956 | 80 | 289 | 1.0 | 9.0 | 0.00 | 0.00 | 0.00 | 87 | 998.5 |
| 20260901144946 | 80 | 302 | 1.0 | 9.0 | 0.00 | 0.00 | 0.00 | 87 | 998.5 |
| 20260901144448 | 80 | 216 | 3.0 | 7.0 | 0.00 | 0.00 | 0.00 | 87 | 998.5 |
| 20260901144445 | 80 | 219 | 3.0 | 7.0 | 0.00 | 0.00 | 0.00 | 87 | 998.5 |
| 20260901143946 | 80 | 354 | 0.0 | 6.0 | 0.00 | 0.00 | 0.00 | 88 | 998.6 |
| 20260901143937 | 80 | 7 | 0.0 | 6.0 | 0.00 | 0.00 | 0.00 | 88 | 998.6 |
| 20260901143445 | 79 | 76 | 2.0 | 7.0 | 0.00 | 0.00 | 0.00 | 88 | 998.6 |
| 20260901142945 | 79 | 267 | 3.0 | 5.0 | 0.00 | 0.00 | 0.00 | 88 | 998.5 |
| 20260901142917 | 79 | 244 | 2.0 | 5.0 | 0.00 | 0.00 | 0.00 | 88 | 998.5 |
| 20260901142446 | 80 | 234 | 3.0 | 7.0 | 0.00 | 0.00 | 0.00 | 88 | 998.5 |
| 20260901142407 | 80 | 262 | 2.0 | 7.0 | 0.00 | 0.00 | 0.00 | 88 | 998.5 |
| 20260901141945 | 79 | 245 | 3.0 | 6.0 | 0.00 | 0.00 | 0.00 | 87 | 998.5 |
| 20260901141857 | 79 | 175 | 0.0 | 3.0 | 0.00 | 0.00 | 0.00 | 88 | 998.5 |
| 20260901141446 | 79 | 249 | 3.0 | 5.0 | 0.00 | 0.00 | 0.00 | 88 | 998.4 |
| 20260901141347 | 79 | 228 | 1.0 | 5.0 | 0.00 | 0.00 | 0.00 | 88 | 998.4 |
| 20260901140945 | 80 | 213 | 2.0 | 9.0 | 0.00 | 0.00 | 0.00 | 87 | 998.4 |
| 20260901140836 | 80 | 227 | 5.0 | 9.0 | 0.00 | 0.00 | 0.00 | 87 | 998.4 |
| 20260901140445 | 80 | 220 | 2.0 | 8.0 | 0.00 | 0.00 | 0.00 | 87 | 998.4 |
| 20260901140327 | 80 | 252 | 4.0 | 8.0 | 0.00 | 0.00 | 0.00 | 87 | 998.4 |
| 20260901135946 | 80 | 264 | 4.0 | 8.0 | 0.00 | 0.00 | 0.00 | 87 | 998.3 |
| 20260901135817 | 79 | 313 | 2.0 | 5.0 | 0.00 | 0.00 | 0.00 | 87 | 998.3 |
| 20260901135445 | 79 | 240 | 1.0 | 9.0 | 0.00 | 0.00 | 0.00 | 87 | 998.3 |
| 20260901135307 | 79 | 359 | 2.0 | 9.0 | 0.00 | 0.00 | 0.00 | 87 | 998.3 |
| 20260901134945 | 79 | 251 | 5.0 | 10.0 | 0.00 | 0.00 | 0.00 | 87 | 998.3 |
| 20260901134757 | 79 | 67 | 1.0 | 10.0 | 0.00 | 0.00 | 0.00 | 88 | 998.3 |
| 20260901134445 | 79 | 296 | 1.0 | 7.0 | 0.00 | 0.00 | 0.00 | 88 | 998.3 |
| 20260901134246 | 79 | 321 | 0.0 | 7.0 | 0.00 | 0.00 | 0.00 | 88 | 998.3 |
| 20260901133945 | 79 | 280 | 1.0 | 4.0 | 0.00 | 0.00 | 0.00 | 88 | 998.3 |
| 20260901133737 | 79 | 233 | 0.0 | 4.0 | 0.00 | 0.00 | 0.00 | 88 | 998.3 |
| 20260901133445 | 79 | 278 | 1.0 | 6.0 | 0.00 | 0.00 | 0.00 | 88 | 998.2 |
| 20260901133226 | 79 | 235 | 3.0 | 6.0 | 0.00 | 0.00 | 0.00 | 88 | 998.2 |
| 20260901132945 | 79 | 250 | 1.0 | 7.0 | 0.00 | 0.00 | 0.00 | 88 | 998.2 |
| 20260901132717 | 79 | 357 | 1.0 | 12.0 | 0.00 | 0.00 | 0.00 | 88 | 998.3 |
| 20260901132445 | 79 | 296 | 6.0 | 12.0 | 0.00 | 0.00 | 0.00 | 88 | 998.2 |
| 20260901132206 | 79 | 144 | 1.0 | 8.0 | 0.00 | 0.00 | 0.00 | 88 | 998.2 |
| 20260901131945 | 79 | 56 | 2.0 | 10.0 | 0.00 | 0.00 | 0.00 | 88 | 998.2 |
| 20260901131656 | 79 | 292 | 1.0 | 10.0 | 0.00 | 0.00 | 0.00 | 87 | 998.3 |
| 20260901131446 | 79 | 16 | 5.0 | 7.0 | 0.00 | 0.00 | 0.00 | 87 | 998.2 |
| 20260901131146 | 79 | 317 | 1.0 | 6.0 | 0.00 | 0.00 | 0.00 | 87 | 998.2 |
| 20260901130945 | 79 | 282 | 3.0 | 6.0 | 0.00 | 0.00 | 0.00 | 87 | 998.2 |
| 20260901130636 | 79 | 258 | 1.0 | 7.0 | 0.00 | 0.00 | 0.00 | 87 | 998.0 |
| 20260901130445 | 79 | 134 | 1.0 | 7.0 | 0.00 | 0.00 | 0.00 | 87 | 998.1 |
| 20260901130126 | 80 | 74 | 4.0 | 8.0 | 0.00 | 0.00 | 0.00 | 87 | 998.1 |
| 20260901125945 | 80 | 119 | 5.0 | 8.0 | 0.00 | 0.00 | 0.00 | 87 | 998.1 |
| 20260901125616 | 80 | 48 | 3.0 | 5.0 | 0.00 | 0.00 | 0.00 | 87 | 998.0 |
| 20260901125444 | 80 | 64 | 3.0 | 5.0 | 0.00 | 0.00 | 0.00 | 87 | 997.9 |
| 20260901125106 | 80 | 146 | 0.0 | 2.0 | 0.00 | 0.00 | 0.00 | 86 | 997.7 |
| 20260901124945 | 80 | 229 | 1.0 | 2.0 | 0.00 | 0.00 | 0.00 | 86 | 997.7 |
| 20260901124557 | 80 | 135 | 0.0 | 2.0 | 0.00 | 0.00 | 0.00 | 86 | 997.6 |
| 20260901124444 | 80 | 49 | 0.0 | 3.0 | 0.00 | 0.00 | 0.00 | 86 | 997.7 |
| 20260901124046 | 80 | 254 | 2.0 | 3.0 | 0.00 | 0.00 | 0.00 | 86 | 997.6 |
| 20260901123945 | 80 | 233 | 2.0 | 4.0 | 0.00 | 0.00 | 0.00 | 86 | 997.6 |
| 20260901123537 | 80 | 122 | 1.0 | 8.0 | 0.00 | 0.00 | 0.00 | 86 | 997.6 |
| 20260901123444 | 80 | 353 | 0.0 | 8.0 | 0.00 | 0.00 | 0.00 | 86 | 997.5 |
| 20260901123026 | 80 | 5 | 0.0 | 7.0 | 0.00 | 0.00 | 0.00 | 86 | 997.5 |
| 20260901122945 | 80 | 311 | 1.0 | 7.0 | 0.00 | 0.00 | 0.00 | 86 | 997.5 |
| 20260901122445 | 80 | 46 | 2.0 | 10.0 | 0.00 | 0.00 | 0.00 | 86 | 997.5 |
| 20260901122006 | 80 | 295 | 3.0 | 5.0 | 0.00 | 0.00 | 0.00 | 87 | 997.5 |
| 20260901121944 | 80 | 53 | 3.0 | 5.0 | 0.00 | 0.00 | 0.00 | 87 | 997.4 |
| 20260901121456 | 80 | 360 | 1.0 | 5.0 | 0.00 | 0.00 | 0.00 | 87 | 997.3 |
| 20260901121444 | 80 | 24 | 0.0 | 5.0 | 0.00 | 0.00 | 0.00 | 88 | 997.3 |
| 20260901120947 | 80 | 213 | 3.0 | 8.0 | 0.00 | 0.00 | 0.00 | 88 | 997.1 |
| 20260901120944 | 80 | 191 | 3.0 | 8.0 | 0.00 | 0.00 | 0.00 | 88 | 997.1 |
| 20260901120445 | 80 | 41 | 4.0 | 9.0 | 0.00 | 0.00 | 0.00 | 88 | 997.0 |
| 20260901120436 | 80 | 92 | 5.0 | 9.0 | 0.00 | 0.00 | 0.00 | 88 | 997.0 |
| 20260901115944 | 80 | 288 | 1.0 | 5.0 | 0.00 | 0.00 | 0.00 | 88 | 997.0 |
| 20260901115926 | 80 | 214 | 0.0 | 5.0 | 0.00 | 0.00 | 0.00 | 88 | 997.0 |
| 20260901115445 | 80 | 271 | 1.0 | 3.0 | 0.00 | 0.00 | 0.00 | 88 | 997.1 |
| 20260901115416 | 80 | 281 | 0.0 | 3.0 | 0.00 | 0.00 | 0.00 | 88 | 997.1 |
| 20260901114944 | 80 | 202 | 1.0 | 3.0 | 0.00 | 0.00 | 0.00 | 88 | 997.0 |
| 20260901114906 | 80 | 184 | 1.0 | 3.0 | 0.00 | 0.00 | 0.00 | 88 | 997.0 |
| 20260901114444 | 80 | 222 | 0.0 | 4.0 | 0.00 | 0.00 | 0.00 | 88 | 996.9 |
| 20260901114356 | 80 | 313 | 0.0 | 4.0 | 0.00 | 0.00 | 0.00 | 88 | 996.9 |
| 20260901113944 | 80 | 359 | 1.0 | 3.0 | 0.00 | 0.00 | 0.00 | 89 | 996.9 |
| 20260901113845 | 80 | 270 | 1.0 | 3.0 | 0.00 | 0.00 | 0.00 | 88 | 996.8 |
| 20260901113444 | 80 | 259 | 0.0 | 2.0 | 0.00 | 0.00 | 0.00 | 88 | 996.8 |
| 20260901113336 | 80 | 230 | 1.0 | 2.0 | 0.00 | 0.00 | 0.00 | 88 | 996.8 |
| 20260901112944 | 80 | 10 | 0.0 | 2.0 | 0.00 | 0.00 | 0.00 | 88 | 996.8 |
| 20260901112444 | 80 | 295 | 2.0 | 3.0 | 0.00 | 0.00 | 0.00 | 88 | 996.7 |
| 20260901112316 | 80 | 267 | 0.0 | 1.0 | 0.00 | 0.00 | 0.00 | 88 | 996.7 |
| 20260901111945 | 80 | 48 | 0.0 | 1.0 | 0.00 | 0.00 | 0.00 | 88 | 996.8 |
| 20260901111805 | 80 | 124 | 0.0 | 1.0 | 0.00 | 0.00 | 0.00 | 88 | 996.8 |
| 20260901111444 | 80 | 198 | 0.0 | 3.0 | 0.00 | 0.00 | 0.00 | 87 | 996.8 |
| 20260901111256 | 80 | 211 | 1.0 | 3.0 | 0.00 | 0.00 | 0.00 | 87 | 996.8 |
| 20260901110944 | 80 | 199 | 1.0 | 5.0 | 0.00 | 0.00 | 0.00 | 87 | 996.8 |
| 20260901110745 | 80 | 206 | 3.0 | 5.0 | 0.00 | 0.00 | 0.00 | 87 | 996.8 |
| 20260901110444 | 80 | 242 | 4.0 | 7.0 | 0.00 | 0.00 | 0.00 | 87 | 996.8 |
| 20260901110235 | 80 | 204 | 5.0 | 7.0 | 0.00 | 0.00 | 0.00 | 87 | 996.8 |
| 20260901105944 | 80 | 233 | 3.0 | 4.0 | 0.00 | 0.00 | 0.00 | 87 | 996.8 |
| 20260901105726 | 80 | 251 | 0.0 | 4.0 | 0.00 | 0.00 | 0.00 | 86 | 996.8 |
| 20260901105443 | 81 | 116 | 1.0 | 4.0 | 0.00 | 0.00 | 0.00 | 86 | 996.7 |
| 20260901104944 | 81 | 283 | 2.0 | 6.0 | 0.00 | 0.00 | 0.00 | 85 | 996.7 |
| 20260901104444 | 81 | 286 | 3.0 | 8.0 | 0.00 | 0.00 | 0.00 | 85 | 996.8 |
| 20260901103944 | 82 | 135 | 1.0 | 7.0 | 0.00 | 0.00 | 0.00 | 84 | 996.8 |
| 20260901103444 | 83 | 39 | 3.0 | 6.0 | 0.00 | 0.00 | 0.00 | 83 | 996.9 |
| 20260901102943 | 82 | 339 | 1.0 | 2.0 | 0.00 | 0.00 | 0.00 | 82 | 996.5 |
| 20260901102625 | 82 | 204 | 1.0 | 4.0 | 0.00 | 0.00 | 0.00 | 82 | 996.4 |
| 20260901102445 | 82 | 194 | 2.0 | 4.0 | 0.00 | 0.00 | 0.00 | 82 | 996.5 |
| 20260901101944 | 82 | 204 | 2.0 | 4.0 | 0.00 | 0.00 | 0.00 | 82 | 996.5 |
| 20260901101605 | 82 | 230 | 0.0 | 2.0 | 0.00 | 0.00 | 0.00 | 82 | 996.5 |
| 20260901101443 | 82 | 228 | 0.0 | 2.0 | 0.00 | 0.00 | 0.00 | 82 | 996.5 |
| 20260901101055 | 83 | 219 | 1.0 | 4.0 | 0.00 | 0.00 | 0.00 | 82 | 996.5 |
| 20260901100944 | 82 | 187 | 2.0 | 5.0 | 0.00 | 0.00 | 0.00 | 82 | 996.5 |
| 20260901100545 | 82 | 168 | 3.0 | 5.0 | 0.00 | 0.00 | 0.00 | 82 | 996.4 |
| 20260901100444 | 82 | 184 | 2.0 | 5.0 | 0.00 | 0.00 | 0.00 | 82 | 996.4 |
| 20260901100034 | 82 | 184 | 2.0 | 5.0 | 0.00 | 0.00 | 0.00 | 82 | 996.4 |
| 20260901095943 | 82 | 203 | 2.0 | 5.0 | 0.00 | 0.00 | 0.00 | 82 | 996.4 |
| 20260901095444 | 83 | 178 | 2.0 | 4.0 | 0.00 | 0.00 | 0.00 | 83 | 996.3 |
| 20260901094943 | 83 | 80 | 1.0 | 3.0 | 0.00 | 0.00 | 0.00 | 83 | 996.4 |
| 20260901094443 | 83 | 215 | 0.0 | 1.0 | 0.00 | 0.00 | 0.00 | 83 | 996.4 |
| 20260901093954 | 82 | 360 | 0.0 | 6.0 | 0.00 | 0.00 | 0.00 | 83 | 996.4 |
| 20260901093944 | 82 | 35 | 0.0 | 6.0 | 0.00 | 0.00 | 0.00 | 82 | 996.4 |
| 20260901093443 | 83 | 334 | 0.0 | 2.0 | 0.00 | 0.00 | 0.00 | 82 | 996.3 |
| 20260901092944 | 83 | 281 | 1.0 | 5.0 | 0.00 | 0.00 | 0.00 | 82 | 996.2 |
| 20260901092443 | 83 | 35 | 2.0 | 6.0 | 0.00 | 0.00 | 0.00 | 81 | 996.3 |
| 20260901091943 | 83 | 34 | 0.0 | 4.0 | 0.00 | 0.00 | 0.00 | 82 | 996.2 |
| 20260901091915 | 83 | 58 | 1.0 | 4.0 | 0.00 | 0.00 | 0.00 | 82 | 996.3 |
| 20260901091443 | 83 | 69 | 1.0 | 6.0 | 0.00 | 0.00 | 0.00 | 82 | 996.1 |
| 20260901090943 | 82 | 19 | 4.0 | 10.0 | 0.00 | 0.00 | 0.00 | 83 | 996.1 |
| 20260901090855 | 82 | 234 | 5.0 | 10.0 | 0.00 | 0.00 | 0.00 | 83 | 996.1 |
| 20260901090443 | 82 | 259 | 2.0 | 7.0 | 0.00 | 0.00 | 0.00 | 83 | 996.1 |
| 20260901085943 | 82 | 190 | 4.0 | 6.0 | 0.00 | 0.00 | 0.00 | 83 | 996.1 |
| 20260901085834 | 82 | 206 | 4.0 | 5.0 | 0.00 | 0.00 | 0.00 | 83 | 996.1 |
| 20260901085443 | 82 | 182 | 3.0 | 5.0 | 0.00 | 0.00 | 0.00 | 83 | 996.1 |
| 20260901085324 | 82 | 214 | 1.0 | 6.0 | 0.00 | 0.00 | 0.00 | 83 | 996.1 |
| 20260901084944 | 82 | 236 | 1.0 | 6.0 | 0.00 | 0.00 | 0.00 | 82 | 996.1 |
| 20260901084442 | 83 | 196 | 4.0 | 8.0 | 0.00 | 0.00 | 0.00 | 82 | 996.1 |
| 20260901084304 | 83 | 212 | 5.0 | 7.0 | 0.00 | 0.00 | 0.00 | 82 | 996.0 |
| 20260901083943 | 83 | 239 | 4.0 | 7.0 | 0.00 | 0.00 | 0.00 | 82 | 996.0 |
| 20260901083754 | 83 | 217 | 4.0 | 7.0 | 0.00 | 0.00 | 0.00 | 82 | 996.0 |
| 20260901083443 | 83 | 169 | 2.0 | 5.0 | 0.00 | 0.00 | 0.00 | 82 | 996.1 |
| 20260901082943 | 83 | 232 | 3.0 | 7.0 | 0.00 | 0.00 | 0.00 | 81 | 996.1 |
| 20260901082734 | 83 | 264 | 3.0 | 6.0 | 0.00 | 0.00 | 0.00 | 82 | 996.2 |
| 20260901082443 | 83 | 180 | 4.0 | 8.0 | 0.00 | 0.00 | 0.00 | 81 | 996.1 |
| 20260901081942 | 83 | 175 | 5.0 | 7.0 | 0.00 | 0.00 | 0.00 | 80 | 996.1 |
| 20260901081714 | 84 | 146 | 3.0 | 7.0 | 0.00 | 0.00 | 0.00 | 80 | 996.1 |
| 20260901081443 | 84 | 181 | 3.0 | 5.0 | 0.00 | 0.00 | 0.00 | 80 | 996.0 |
| 20260901081204 | 84 | 99 | 2.0 | 7.0 | 0.00 | 0.00 | 0.00 | 81 | 996.1 |
| 20260901080942 | 84 | 178 | 1.0 | 7.0 | 0.00 | 0.00 | 0.00 | 81 | 996.0 |
| 20260901080654 | 84 | 213 | 3.0 | 5.0 | 0.00 | 0.00 | 0.00 | 81 | 995.9 |
| 20260901080443 | 83 | 70 | 3.0 | 5.0 | 0.00 | 0.00 | 0.00 | 81 | 995.9 |
| 20260901080144 | 83 | 345 | 1.0 | 5.0 | 0.00 | 0.00 | 0.00 | 81 | 995.9 |
| 20260901075942 | 83 | 42 | 1.0 | 5.0 | 0.00 | 0.00 | 0.00 | 81 | 995.9 |
| 20260901075634 | 83 | 44 | 2.0 | 4.0 | 0.00 | 0.00 | 0.00 | 82 | 995.9 |
| 20260901075443 | 83 | 48 | 1.0 | 3.0 | 0.00 | 0.00 | 0.00 | 82 | 995.9 |
| 20260901075124 | 83 | 259 | 2.0 | 3.0 | 0.00 | 0.00 | 0.00 | 82 | 996.0 |
| 20260901074943 | 83 | 246 | 2.0 | 3.0 | 0.00 | 0.00 | 0.00 | 82 | 996.0 |
| 20260901074613 | 83 | 332 | 1.0 | 4.0 | 0.00 | 0.00 | 0.00 | 82 | 996.0 |
| 20260901074442 | 83 | 345 | 2.0 | 4.0 | 0.00 | 0.00 | 0.00 | 82 | 996.0 |
| 20260901074104 | 83 | 360 | 1.0 | 7.0 | 0.00 | 0.00 | 0.00 | 82 | 996.0 |
| 20260901073942 | 83 | 325 | 1.0 | 7.0 | 0.00 | 0.00 | 0.00 | 82 | 996.0 |
| 20260901073554 | 83 | 39 | 0.0 | 4.0 | 0.00 | 0.00 | 0.00 | 82 | 996.1 |
| 20260901073043 | 82 | 37 | 1.0 | 6.0 | 0.00 | 0.00 | 0.00 | 82 | 996.1 |
| 20260901072942 | 82 | 59 | 2.0 | 6.0 | 0.00 | 0.00 | 0.00 | 82 | 996.1 |
| 20260901072534 | 83 | 184 | 0.0 | 2.0 | 0.00 | 0.00 | 0.00 | 82 | 996.2 |
| 20260901072444 | 82 | 114 | 0.0 | 2.0 | 0.00 | 0.00 | 0.00 | 82 | 996.2 |
| 20260901072023 | 82 | 54 | 1.0 | 8.0 | 0.00 | 0.00 | 0.00 | 82 | 996.2 |
| 20260901071942 | 82 | 65 | 3.0 | 8.0 | 0.00 | 0.00 | 0.00 | 82 | 996.2 |
| 20260901071513 | 83 | 341 | 1.0 | 8.0 | 0.00 | 0.00 | 0.00 | 82 | 996.3 |
| 20260901071442 | 83 | 323 | 2.0 | 8.0 | 0.00 | 0.00 | 0.00 | 82 | 996.3 |
| 20260901071003 | 83 | 82 | 0.0 | 10.0 | 0.00 | 0.00 | 0.00 | 83 | 996.3 |
| 20260901070943 | 83 | 263 | 1.0 | 10.0 | 0.00 | 0.00 | 0.00 | 83 | 996.3 |
| 20260901070453 | 83 | 346 | 2.0 | 10.0 | 0.00 | 0.00 | 0.00 | 82 | 996.3 |
| 20260901070442 | 82 | 121 | 2.0 | 10.0 | 0.00 | 0.00 | 0.00 | 82 | 996.3 |
| 20260901065945 | 82 | 107 | 4.0 | 14.0 | 0.00 | 0.00 | 0.00 | 83 | 996.3 |
| 20260901065942 | 82 | 132 | 4.0 | 14.0 | 0.00 | 0.00 | 0.00 | 83 | 996.3 |
| 20260901065442 | 83 | 61 | 2.0 | 5.0 | 0.00 | 0.00 | 0.00 | 83 | 996.4 |
| 20260901064942 | 82 | 260 | 2.0 | 8.0 | 0.00 | 0.00 | 0.00 | 84 | 996.5 |
| 20260901064442 | 82 | 67 | 5.0 | 12.0 | 0.00 | 0.00 | 0.00 | 83 | 996.6 |
| 20260901064413 | 82 | 49 | 4.0 | 12.0 | 0.00 | 0.00 | 0.00 | 84 | 996.6 |
| 20260901063943 | 82 | 262 | 3.0 | 9.0 | 0.00 | 0.00 | 0.00 | 84 | 996.6 |
| 20260901063903 | 82 | 93 | 6.0 | 9.0 | 0.00 | 0.00 | 0.00 | 84 | 996.6 |
| 20260901063442 | 82 | 83 | 1.0 | 7.0 | 0.00 | 0.00 | 0.00 | 84 | 996.7 |
| 20260901063354 | 82 | 39 | 1.0 | 7.0 | 0.00 | 0.00 | 0.00 | 84 | 996.7 |
| 20260901062942 | 82 | 238 | 0.0 | 12.0 | 0.00 | 0.00 | 0.00 | 85 | 996.7 |
| 20260901062843 | 82 | 297 | 3.0 | 12.0 | 0.00 | 0.00 | 0.00 | 85 | 996.7 |
| 20260901062442 | 81 | 145 | 4.0 | 9.0 | 0.00 | 0.00 | 0.00 | 85 | 996.8 |
| 20260901062333 | 81 | 309 | 3.0 | 9.0 | 0.00 | 0.00 | 0.00 | 85 | 996.8 |
| 20260901061942 | 81 | 39 | 3.0 | 9.0 | 0.00 | 0.00 | 0.00 | 86 | 996.9 |
| 20260901061823 | 81 | 48 | 1.0 | 7.0 | 0.00 | 0.00 | 0.00 | 86 | 996.9 |
| 20260901061442 | 81 | 38 | 1.0 | 10.0 | 0.00 | 0.00 | 0.00 | 86 | 996.9 |
| 20260901061313 | 81 | 170 | 2.0 | 10.0 | 0.00 | 0.00 | 0.00 | 86 | 996.9 |
| 20260901060941 | 81 | 4 | 2.0 | 9.0 | 0.00 | 0.00 | 0.00 | 87 | 996.9 |
| 20260901060803 | 81 | 303 | 0.0 | 8.0 | 0.00 | 0.00 | 0.00 | 87 | 996.9 |
| 20260901060443 | 81 | 237 | 3.0 | 6.0 | 0.00 | 0.00 | 0.00 | 87 | 996.9 |
| 20260901060253 | 80 | 180 | 4.0 | 6.0 | 0.00 | 0.00 | 0.00 | 87 | 997.0 |
| 20260901055942 | 80 | 180 | 4.0 | 6.0 | 0.00 | 0.00 | 0.00 | 87 | 997.0 |
| 20260901055441 | 80 | 360 | 1.0 | 5.0 | 0.00 | 0.00 | 0.00 | 87 | 997.0 |
| 20260901055233 | 80 | 287 | 2.0 | 7.0 | 0.00 | 0.00 | 0.00 | 87 | 997.0 |
| 20260901054942 | 80 | 163 | 1.0 | 12.0 | 0.00 | 0.00 | 0.00 | 87 | 997.1 |
| 20260901054723 | 80 | 88 | 5.0 | 12.0 | 0.00 | 0.00 | 0.00 | 87 | 997.1 |
| 20260901054441 | 80 | 45 | 5.0 | 11.0 | 0.00 | 0.00 | 0.00 | 87 | 997.1 |
| 20260901054212 | 80 | 238 | 2.0 | 13.0 | 0.00 | 0.00 | 0.00 | 87 | 997.1 |
| 20260901053941 | 80 | 44 | 9.0 | 13.0 | 0.00 | 0.00 | 0.00 | 87 | 997.2 |
| 20260901053703 | 80 | 73 | 3.0 | 8.0 | 0.00 | 0.00 | 0.00 | 87 | 997.3 |
| 20260901053442 | 80 | 41 | 2.0 | 8.0 | 0.00 | 0.00 | 0.00 | 87 | 997.3 |
| 20260901053152 | 80 | 130 | 4.0 | 10.0 | 0.00 | 0.00 | 0.00 | 87 | 997.3 |
| 20260901052941 | 80 | 31 | 3.0 | 10.0 | 0.00 | 0.00 | 0.00 | 87 | 997.4 |
| 20260901052643 | 80 | 57 | 3.0 | 7.0 | 0.00 | 0.00 | 0.00 | 88 | 997.4 |
| 20260901052442 | 80 | 192 | 1.0 | 9.0 | 0.00 | 0.00 | 0.00 | 87 | 997.4 |
| 20260901052132 | 80 | 4 | 5.0 | 18.0 | 0.00 | 0.00 | 0.00 | 87 | 997.5 |
| 20260901051941 | 80 | 128 | 9.0 | 18.0 | 0.00 | 0.00 | 0.00 | 87 | 997.5 |
| 20260901051623 | 80 | 35 | 3.0 | 13.0 | 0.00 | 0.00 | 0.00 | 88 | 997.6 |
| 20260901051442 | 80 | 245 | 5.0 | 13.0 | 0.00 | 0.00 | 0.00 | 88 | 997.6 |
| 20260901051112 | 80 | 43 | 1.0 | 4.0 | 0.00 | 0.00 | 0.00 | 88 | 997.7 |
| 20260901050941 | 80 | 160 | 1.0 | 18.0 | 0.00 | 0.00 | 0.00 | 88 | 997.7 |
| 20260901050603 | 79 | 47 | 8.0 | 18.0 | 0.00 | 0.00 | 0.00 | 88 | 997.7 |
| 20260901050442 | 80 | 321 | 3.0 | 11.0 | 0.00 | 0.00 | 0.00 | 88 | 997.7 |
| 20260901050052 | 79 | 25 | 5.0 | 13.0 | 0.00 | 0.00 | 0.00 | 88 | 997.8 |
| 20260901045941 | 79 | 48 | 3.0 | 13.0 | 0.00 | 0.00 | 0.00 | 88 | 997.8 |
| 20260901045543 | 79 | 25 | 3.0 | 11.0 | 0.00 | 0.00 | 0.00 | 88 | 997.9 |
| 20260901045441 | 79 | 36 | 1.0 | 11.0 | 0.00 | 0.00 | 0.00 | 88 | 997.9 |
| 20260901045032 | 79 | 24 | 4.0 | 13.0 | 0.00 | 0.00 | 0.00 | 88 | 997.9 |
| 20260901044522 | 79 | 48 | 2.0 | 14.0 | 0.00 | 0.00 | 0.00 | 88 | 998.0 |
| 20260901044441 | 79 | 30 | 9.0 | 14.0 | 0.00 | 0.00 | 0.00 | 88 | 998.0 |
| 20260901044013 | 79 | 15 | 6.0 | 12.0 | 0.00 | 0.00 | 0.00 | 89 | 998.1 |
| 20260901043940 | 79 | 67 | 5.0 | 12.0 | 0.00 | 0.00 | 0.00 | 89 | 998.0 |
| 20260901043441 | 79 | 182 | 3.0 | 15.0 | 0.00 | 0.00 | 0.00 | 89 | 998.1 |
| 20260901042952 | 79 | 50 | 1.0 | 14.0 | 0.00 | 0.00 | 0.00 | 89 | 998.2 |
| 20260901042941 | 79 | 76 | 1.0 | 14.0 | 0.00 | 0.00 | 0.00 | 89 | 998.1 |
| 20260901042444 | 79 | 48 | 6.0 | 17.0 | 0.00 | 0.00 | 0.00 | 89 | 998.1 |
| 20260901042441 | 79 | 44 | 6.0 | 17.0 | 0.00 | 0.00 | 0.00 | 89 | 998.1 |
| 20260901041941 | 79 | 314 | 3.0 | 18.0 | 0.00 | 0.00 | 0.00 | 89 | 998.3 |
| 20260901041441 | 79 | 212 | 3.0 | 16.0 | 0.00 | 0.00 | 0.00 | 89 | 998.3 |
| 20260901041422 | 79 | 107 | 4.0 | 16.0 | 0.00 | 0.00 | 0.00 | 89 | 998.3 |
| 20260901040940 | 79 | 43 | 2.0 | 12.0 | 0.00 | 0.00 | 0.00 | 89 | 998.5 |
| 20260901040441 | 79 | 67 | 7.0 | 10.0 | 0.00 | 0.00 | 0.00 | 89 | 998.4 |
| 20260901040402 | 79 | 69 | 6.0 | 13.0 | 0.00 | 0.00 | 0.00 | 89 | 998.4 |
| 20260901035941 | 79 | 142 | 6.0 | 20.0 | 0.00 | 0.00 | 0.00 | 89 | 998.3 |
| 20260901035852 | 79 | 52 | 6.0 | 20.0 | 0.00 | 0.00 | 0.00 | 89 | 998.4 |
| 20260901035440 | 79 | 40 | 4.0 | 20.0 | 0.00 | 0.00 | 0.00 | 89 | 998.3 |
| 20260901035342 | 79 | 107 | 6.0 | 20.0 | 0.00 | 0.00 | 0.00 | 88 | 998.3 |
| 20260901034941 | 79 | 108 | 9.0 | 20.0 | 0.00 | 0.00 | 0.00 | 88 | 998.5 |
| 20260901034440 | 79 | 347 | 5.0 | 21.0 | 0.00 | 0.00 | 0.00 | 88 | 998.3 |
| 20260901034321 | 79 | 53 | 7.0 | 21.0 | 0.00 | 0.00 | 0.00 | 88 | 998.4 |
| 20260901033941 | 79 | 98 | 5.0 | 13.0 | 0.00 | 0.00 | 0.00 | 88 | 998.5 |
| 20260901033812 | 79 | 265 | 2.0 | 13.0 | 0.00 | 0.00 | 0.00 | 88 | 998.4 |
| 20260901033441 | 79 | 171 | 5.0 | 10.0 | 0.00 | 0.00 | 0.00 | 87 | 998.4 |
| 20260901032940 | 79 | 359 | 2.0 | 8.0 | 0.00 | 0.00 | 0.00 | 87 | 998.5 |
| 20260901032752 | 79 | 36 | 3.0 | 8.0 | 0.00 | 0.00 | 0.00 | 86 | 998.5 |
| 20260901032441 | 80 | 259 | 3.0 | 7.0 | 0.00 | 0.00 | 0.00 | 86 | 998.5 |
| 20260901032241 | 80 | 55 | 1.0 | 7.0 | 0.00 | 0.00 | 0.00 | 86 | 998.6 |
| 20260901031940 | 80 | 56 | 5.0 | 10.0 | 0.00 | 0.00 | 0.00 | 85 | 998.6 |
| 20260901031732 | 80 | 6 | 5.0 | 10.0 | 0.00 | 0.00 | 0.00 | 85 | 998.6 |
| 20260901031441 | 80 | 54 | 4.0 | 10.0 | 0.00 | 0.00 | 0.00 | 84 | 998.6 |
| 20260901030940 | 81 | 28 | 2.0 | 8.0 | 0.00 | 0.00 | 0.00 | 84 | 998.5 |
| 20260901030712 | 81 | 357 | 4.0 | 7.0 | 0.00 | 0.00 | 0.00 | 84 | 998.5 |
| 20260901030441 | 81 | 75 | 5.0 | 7.0 | 0.00 | 0.00 | 0.00 | 84 | 998.6 |
| 20260901030201 | 81 | 1 | 1.0 | 6.0 | 0.00 | 0.00 | 0.00 | 84 | 998.6 |
| 20260901025940 | 81 | 53 | 3.0 | 9.0 | 0.00 | 0.00 | 0.00 | 84 | 998.6 |
| 20260901025652 | 81 | 75 | 5.0 | 12.0 | 0.00 | 0.00 | 0.00 | 84 | 998.6 |
| 20260901025440 | 81 | 85 | 5.0 | 12.0 | 0.00 | 0.00 | 0.00 | 84 | 998.6 |
| 20260901025141 | 81 | 134 | 4.0 | 9.0 | 0.00 | 0.00 | 0.00 | 84 | 998.7 |
| 20260901024940 | 81 | 29 | 4.0 | 10.0 | 0.00 | 0.00 | 0.00 | 84 | 998.6 |
| 20260901024631 | 81 | 32 | 4.0 | 13.0 | 0.00 | 0.00 | 0.00 | 84 | 998.7 |
| 20260901024440 | 81 | 50 | 2.0 | 14.0 | 0.00 | 0.00 | 0.00 | 84 | 998.7 |
| 20260901024122 | 81 | 35 | 9.0 | 14.0 | 0.00 | 0.00 | 0.00 | 84 | 998.6 |
| 20260901023941 | 81 | 103 | 6.0 | 13.0 | 0.00 | 0.00 | 0.00 | 84 | 998.7 |
| 20260901023611 | 81 | 54 | 1.0 | 6.0 | 0.00 | 0.00 | 0.00 | 84 | 998.6 |
| 20260901023440 | 81 | 354 | 3.0 | 10.0 | 0.00 | 0.00 | 0.00 | 84 | 998.6 |
| 20260901023101 | 81 | 52 | 4.0 | 24.0 | 0.00 | 0.00 | 0.00 | 84 | 998.6 |
| 20260901022940 | 81 | 51 | 13.0 | 24.0 | 0.00 | 0.00 | 0.00 | 84 | 998.6 |
| 20260901022551 | 81 | 95 | 3.0 | 10.0 | 0.00 | 0.00 | 0.00 | 84 | 998.7 |
| 20260901022440 | 81 | 59 | 8.0 | 10.0 | 0.00 | 0.00 | 0.00 | 84 | 998.7 |
| 20260901022041 | 81 | 52 | 1.0 | 5.0 | 0.00 | 0.00 | 0.00 | 85 | 998.7 |
| 20260901021940 | 81 | 49 | 3.0 | 5.0 | 0.00 | 0.00 | 0.00 | 85 | 998.7 |
| 20260901021532 | 81 | 98 | 3.0 | 15.0 | 0.00 | 0.00 | 0.00 | 85 | 998.7 |
| 20260901021439 | 81 | 53 | 5.0 | 15.0 | 0.00 | 0.00 | 0.00 | 84 | 998.7 |
| 20260901020940 | 81 | 38 | 8.0 | 14.0 | 0.00 | 0.00 | 0.00 | 84 | 998.6 |
| 20260901020511 | 81 | 48 | 4.0 | 10.0 | 0.00 | 0.00 | 0.00 | 84 | 998.6 |
| 20260901020440 | 81 | 44 | 2.0 | 10.0 | 0.00 | 0.00 | 0.00 | 84 | 998.6 |
| 20260901020001 | 82 | 37 | 2.0 | 10.0 | 0.00 | 0.00 | 0.00 | 83 | 998.6 |
| 20260901015940 | 81 | 338 | 1.0 | 10.0 | 0.00 | 0.00 | 0.00 | 83 | 998.6 |
| 20260901015451 | 82 | 113 | 5.0 | 8.0 | 0.00 | 0.00 | 0.00 | 83 | 998.6 |
| 20260901015440 | 82 | 7 | 5.0 | 8.0 | 0.00 | 0.00 | 0.00 | 83 | 998.6 |
| 20260901014942 | 82 | 27 | 3.0 | 11.0 | 0.00 | 0.00 | 0.00 | 84 | 998.5 |
| 20260901014939 | 82 | 34 | 3.0 | 11.0 | 0.00 | 0.00 | 0.00 | 84 | 998.6 |
| 20260901014440 | 81 | 41 | 3.0 | 16.0 | 0.00 | 0.00 | 0.00 | 84 | 998.6 |
| 20260901014431 | 81 | 17 | 3.0 | 16.0 | 0.00 | 0.00 | 0.00 | 84 | 998.6 |
| 20260901013939 | 81 | 30 | 3.0 | 10.0 | 0.00 | 0.00 | 0.00 | 85 | 998.7 |
| 20260901013920 | 81 | 20 | 4.0 | 10.0 | 0.00 | 0.00 | 0.00 | 85 | 998.7 |
| 20260901013439 | 81 | 115 | 2.0 | 5.0 | 0.00 | 0.00 | 0.00 | 85 | 998.7 |
| 20260901013411 | 81 | 77 | 1.0 | 5.0 | 0.00 | 0.00 | 0.00 | 85 | 998.6 |
| 20260901012940 | 81 | 357 | 1.0 | 10.0 | 0.00 | 0.00 | 0.00 | 86 | 998.7 |
| 20260901012901 | 81 | 71 | 1.0 | 10.0 | 0.00 | 0.00 | 0.00 | 86 | 998.7 |
| 20260901012440 | 81 | 236 | 1.0 | 3.0 | 0.00 | 0.00 | 0.00 | 86 | 998.7 |
| 20260901012350 | 80 | 5 | 1.0 | 5.0 | 0.00 | 0.00 | 0.00 | 86 | 998.7 |
| 20260901011939 | 80 | 221 | 3.0 | 5.0 | 0.00 | 0.00 | 0.00 | 86 | 998.8 |
| 20260901011440 | 80 | 357 | 1.0 | 9.0 | 0.00 | 0.00 | 0.00 | 87 | 998.9 |
| 20260901011331 | 80 | 53 | 2.0 | 9.0 | 0.00 | 0.00 | 0.00 | 87 | 998.9 |
| 20260901010939 | 80 | 83 | 5.0 | 12.0 | 0.00 | 0.00 | 0.00 | 87 | 998.9 |
| 20260901010820 | 80 | 110 | 7.0 | 12.0 | 0.00 | 0.00 | 0.00 | 87 | 998.9 |
| 20260901010439 | 80 | 28 | 3.0 | 10.0 | 0.00 | 0.00 | 0.00 | 87 | 998.9 |
| 20260901010311 | 79 | 241 | 2.0 | 10.0 | 0.00 | 0.00 | 0.00 | 87 | 998.9 |
| 20260901005939 | 80 | 30 | 1.0 | 5.0 | 0.00 | 0.00 | 0.00 | 87 | 999.0 |
| 20260901005801 | 80 | 60 | 1.0 | 9.0 | 0.00 | 0.00 | 0.00 | 87 | 998.9 |
| 20260901005439 | 79 | 75 | 4.0 | 10.0 | 0.00 | 0.00 | 0.00 | 87 | 998.9 |
| 20260901005250 | 79 | 118 | 4.0 | 10.0 | 0.00 | 0.00 | 0.00 | 87 | 999.0 |
| 20260901004939 | 79 | 72 | 4.0 | 7.0 | 0.00 | 0.00 | 0.00 | 87 | 999.0 |
| 20260901004741 | 79 | 103 | 2.0 | 8.0 | 0.00 | 0.00 | 0.00 | 87 | 998.9 |
| 20260901004439 | 80 | 95 | 5.0 | 9.0 | 0.00 | 0.00 | 0.00 | 87 | 998.9 |
| 20260901004231 | 79 | 145 | 5.0 | 9.0 | 0.00 | 0.00 | 0.00 | 87 | 998.9 |
| 20260901003939 | 80 | 95 | 6.0 | 9.0 | 0.00 | 0.00 | 0.00 | 87 | 998.8 |
| 20260901003720 | 80 | 54 | 2.0 | 4.0 | 0.00 | 0.00 | 0.00 | 87 | 998.9 |
| 20260901003439 | 80 | 256 | 0.0 | 3.0 | 0.00 | 0.00 | 0.00 | 87 | 998.8 |
| 20260901003211 | 79 | 54 | 0.0 | 6.0 | 0.00 | 0.00 | 0.00 | 87 | 998.8 |
| 20260901002940 | 79 | 238 | 2.0 | 6.0 | 0.00 | 0.00 | 0.00 | 87 | 998.7 |
| 20260901002700 | 79 | 219 | 1.0 | 4.0 | 0.00 | 0.00 | 0.00 | 87 | 998.8 |
| 20260901002439 | 79 | 35 | 0.0 | 4.0 | 0.00 | 0.00 | 0.00 | 87 | 998.7 |
| 20260901002150 | 79 | 287 | 2.0 | 6.0 | 0.00 | 0.00 | 0.00 | 87 | 998.7 |
| 20260901001939 | 80 | 6 | 3.0 | 8.0 | 0.00 | 0.00 | 0.00 | 87 | 998.7 |
| 20260901001639 | 79 | 55 | 2.0 | 9.0 | 0.00 | 0.00 | 0.00 | 87 | 998.7 |
| 20260901001439 | 79 | 151 | 2.0 | 9.0 | 0.00 | 0.00 | 0.00 | 87 | 998.6 |
| 20260901001130 | 79 | 77 | 4.0 | 10.0 | 0.00 | 0.00 | 0.00 | 87 | 998.6 |
| 20260901000939 | 79 | 48 | 2.0 | 10.0 | 0.00 | 0.00 | 0.00 | 87 | 998.6 |
| 20260901000620 | 79 | 89 | 4.0 | 8.0 | 0.00 | 0.00 | 0.00 | 87 | 998.6 |
| 20260901000439 | 79 | 50 | 2.0 | 6.0 | 0.00 | 0.00 | 0.00 | 87 | 998.6 |
| 20260901000110 | 79 | 28 | 1.0 | 3.0 | 0.00 | 0.00 | 0.00 | 87 | 998.6 |
| 20260831235939 | 79 | 126 | 1.0 | 9.0 | 0.00 | 0.00 | 0.00 | 87 | 998.6 |
| 20260831235600 | 79 | 55 | 4.0 | 9.0 | 0.00 | 0.00 | 0.00 | 87 | 998.6 |
| 20260831235439 | 79 | 40 | 3.0 | 6.0 | 0.00 | 0.00 | 0.00 | 87 | 998.6 |
| 20260831235050 | 79 | 108 | 1.0 | 13.0 | 0.00 | 0.00 | 0.00 | 87 | 998.5 |
| 20260831234938 | 79 | 77 | 2.0 | 13.0 | 0.00 | 0.00 | 0.00 | 87 | 998.6 |
| 20260831234540 | 79 | 14 | 0.0 | 5.0 | 0.00 | 0.00 | 0.00 | 87 | 998.5 |
| 20260831234439 | 79 | 91 | 2.0 | 5.0 | 0.00 | 0.00 | 0.00 | 86 | 998.5 |
| 20260831234030 | 79 | 116 | 2.0 | 4.0 | 0.00 | 0.00 | 0.00 | 86 | 998.5 |
| 20260831233938 | 79 | 218 | 1.0 | 3.0 | 0.00 | 0.00 | 0.00 | 86 | 998.4 |
| 20260831233438 | 79 | 52 | 2.0 | 6.0 | 0.00 | 0.00 | 0.00 | 86 | 998.4 |
| 20260831233010 | 79 | 257 | 0.0 | 4.0 | 0.00 | 0.00 | 0.00 | 86 | 998.4 |
| 20260831232939 | 79 | 274 | 0.0 | 4.0 | 0.00 | 0.00 | 0.00 | 86 | 998.4 |
| 20260831232459 | 79 | 224 | 1.0 | 4.0 | 0.00 | 0.00 | 0.00 | 85 | 998.4 |
| 20260831232438 | 80 | 252 | 1.0 | 4.0 | 0.00 | 0.00 | 0.00 | 85 | 998.4 |
| 20260831231939 | 80 | 185 | 1.0 | 3.0 | 0.00 | 0.00 | 0.00 | 85 | 998.3 |
| 20260831231440 | 80 | 235 | 1.0 | 2.0 | 0.00 | 0.00 | 0.00 | 84 | 998.2 |
| 20260831230938 | 80 | 106 | 1.0 | 8.0 | 0.00 | 0.00 | 0.00 | 83 | 998.1 |
| 20260831230930 | 80 | 134 | 1.0 | 8.0 | 0.00 | 0.00 | 0.00 | 83 | 998.2 |
| 20260831230439 | 81 | 41 | 1.0 | 5.0 | 0.00 | 0.00 | 0.00 | 82 | 998.1 |
| 20260831230420 | 81 | 9 | 0.0 | 6.0 | 0.00 | 0.00 | 0.00 | 82 | 998.1 |
| 20260831225938 | 81 | 45 | 6.0 | 12.0 | 0.00 | 0.00 | 0.00 | 81 | 998.1 |
| 20260831225909 | 81 | 104 | 7.0 | 12.0 | 0.00 | 0.00 | 0.00 | 81 | 998.0 |
| 20260831225438 | 81 | 91 | 6.0 | 10.0 | 0.00 | 0.00 | 0.00 | 81 | 997.9 |
| 20260831225400 | 81 | 204 | 3.0 | 7.0 | 0.00 | 0.00 | 0.00 | 80 | 997.9 |
| 20260831224939 | 81 | 115 | 2.0 | 12.0 | 0.00 | 0.00 | 0.00 | 80 | 997.8 |
| 20260831224850 | 81 | 47 | 7.0 | 12.0 | 0.00 | 0.00 | 0.00 | 80 | 997.9 |
| 20260831224438 | 81 | 39 | 1.0 | 6.0 | 0.00 | 0.00 | 0.00 | 80 | 997.8 |
| 20260831224339 | 81 | 42 | 3.0 | 6.0 | 0.00 | 0.00 | 0.00 | 80 | 997.8 |
| 20260831223938 | 81 | 104 | 4.0 | 7.0 | 0.00 | 0.00 | 0.00 | 80 | 997.8 |
| 20260831223830 | 81 | 56 | 2.0 | 7.0 | 0.00 | 0.00 | 0.00 | 80 | 997.7 |
| 20260831223439 | 81 | 100 | 3.0 | 8.0 | 0.00 | 0.00 | 0.00 | 80 | 997.8 |
| 20260831223319 | 81 | 49 | 1.0 | 17.0 | 0.00 | 0.00 | 0.00 | 80 | 997.7 |
| 20260831222938 | 81 | 88 | 10.0 | 17.0 | 0.00 | 0.00 | 0.00 | 80 | 997.7 |
| 20260831222809 | 81 | 67 | 0.0 | 8.0 | 0.00 | 0.00 | 0.00 | 80 | 997.7 |
| 20260831222438 | 81 | 70 | 2.0 | 4.0 | 0.00 | 0.00 | 0.00 | 80 | 997.7 |
| 20260831222300 | 81 | 77 | 1.0 | 3.0 | 0.00 | 0.00 | 0.00 | 80 | 997.7 |
| 20260831221938 | 81 | 260 | 0.0 | 12.0 | 0.00 | 0.00 | 0.00 | 80 | 997.7 |
| 20260831221749 | 81 | 286 | 1.0 | 12.0 | 0.00 | 0.00 | 0.00 | 80 | 997.7 |
| 20260831221438 | 81 | 152 | 1.0 | 4.0 | 0.00 | 0.00 | 0.00 | 80 | 997.7 |
| 20260831221239 | 81 | 318 | 1.0 | 3.0 | 0.00 | 0.00 | 0.00 | 80 | 997.6 |
| 20260831220938 | 81 | 97 | 1.0 | 3.0 | 0.00 | 0.00 | 0.00 | 80 | 997.6 |
| 20260831220729 | 81 | 61 | 1.0 | 7.0 | 0.00 | 0.00 | 0.00 | 80 | 997.6 |
| 20260831220438 | 81 | 131 | 3.0 | 7.0 | 0.00 | 0.00 | 0.00 | 80 | 997.6 |
| 20260831220219 | 81 | 217 | 5.0 | 6.0 | 0.00 | 0.00 | 0.00 | 80 | 997.6 |
| 20260831215938 | 81 | 220 | 3.0 | 6.0 | 0.00 | 0.00 | 0.00 | 80 | 997.6 |
| 20260831215709 | 81 | 221 | 2.0 | 6.0 | 0.00 | 0.00 | 0.00 | 80 | 997.6 |
| 20260831215438 | 81 | 138 | 4.0 | 8.0 | 0.00 | 0.00 | 0.00 | 80 | 997.6 |
| 20260831215159 | 81 | 127 | 5.0 | 8.0 | 0.00 | 0.00 | 0.00 | 80 | 997.5 |
| 20260831214937 | 81 | 211 | 3.0 | 5.0 | 0.00 | 0.00 | 0.00 | 80 | 997.6 |
| 20260831214649 | 81 | 205 | 4.0 | 5.0 | 0.00 | 0.00 | 0.00 | 80 | 997.6 |
| 20260831214438 | 81 | 267 | 2.0 | 6.0 | 0.00 | 0.00 | 0.00 | 79 | 997.6 |
| 20260831214139 | 81 | 97 | 3.0 | 6.0 | 0.00 | 0.00 | 0.00 | 79 | 997.6 |
| 20260831213938 | 81 | 338 | 1.0 | 6.0 | 0.00 | 0.00 | 0.00 | 80 | 997.6 |
| 20260831213628 | 81 | 9 | 3.0 | 9.0 | 0.00 | 0.00 | 0.00 | 80 | 997.5 |
| 20260831213437 | 81 | 45 | 1.0 | 16.0 | 0.00 | 0.00 | 0.00 | 80 | 997.5 |
| 20260831213119 | 81 | 24 | 6.0 | 16.0 | 0.00 | 0.00 | 0.00 | 80 | 997.5 |
| 20260831212938 | 81 | 173 | 2.0 | 9.0 | 0.00 | 0.00 | 0.00 | 79 | 997.4 |
| 20260831212609 | 81 | 324 | 2.0 | 9.0 | 0.00 | 0.00 | 0.00 | 80 | 997.4 |
| 20260831212438 | 81 | 99 | 1.0 | 9.0 | 0.00 | 0.00 | 0.00 | 80 | 997.3 |
| 20260831212058 | 81 | 57 | 2.0 | 5.0 | 0.00 | 0.00 | 0.00 | 80 | 997.3 |
| 20260831211937 | 81 | 107 | 1.0 | 4.0 | 0.00 | 0.00 | 0.00 | 79 | 997.3 |
| 20260831211549 | 81 | 214 | 0.0 | 7.0 | 0.00 | 0.00 | 0.00 | 80 | 997.3 |
| 20260831211438 | 81 | 255 | 1.0 | 7.0 | 0.00 | 0.00 | 0.00 | 80 | 997.3 |
| 20260831211039 | 81 | 74 | 2.0 | 10.0 | 0.00 | 0.00 | 0.00 | 80 | 997.3 |
| 20260831210938 | 81 | 89 | 5.0 | 10.0 | 0.00 | 0.00 | 0.00 | 80 | 997.3 |
| 20260831210529 | 81 | 19 | 1.0 | 3.0 | 0.00 | 0.00 | 0.00 | 80 | 997.3 |
| 20260831210437 | 81 | 26 | 1.0 | 3.0 | 0.00 | 0.00 | 0.00 | 80 | 997.3 |
| 20260831210019 | 81 | 95 | 1.0 | 8.0 | 0.00 | 0.00 | 0.00 | 79 | 997.3 |
| 20260831205938 | 81 | 282 | 2.0 | 8.0 | 0.00 | 0.00 | 0.00 | 79 | 997.3 |
| 20260831205508 | 81 | 41 | 2.0 | 4.0 | 0.00 | 0.00 | 0.00 | 79 | 997.3 |
| 20260831205437 | 81 | 48 | 1.0 | 4.0 | 0.00 | 0.00 | 0.00 | 79 | 997.3 |
| 20260831204959 | 81 | 351 | 1.0 | 4.0 | 0.00 | 0.00 | 0.00 | 79 | 997.2 |
| 20260831204937 | 81 | 33 | 1.0 | 5.0 | 0.00 | 0.00 | 0.00 | 79 | 997.2 |
| 20260831204449 | 81 | 284 | 2.0 | 5.0 | 0.00 | 0.00 | 0.00 | 80 | 997.3 |
| 20260831204438 | 81 | 266 | 2.0 | 5.0 | 0.00 | 0.00 | 0.00 | 79 | 997.3 |
| 20260831203939 | 81 | 134 | 1.0 | 6.0 | 0.00 | 0.00 | 0.00 | 80 | 997.2 |
| 20260831203937 | 81 | 117 | 1.0 | 6.0 | 0.00 | 0.00 | 0.00 | 80 | 997.2 |
| 20260831203438 | 81 | 70 | 3.0 | 5.0 | 0.00 | 0.00 | 0.00 | 80 | 997.2 |
| 20260831203428 | 81 | 60 | 3.0 | 5.0 | 0.00 | 0.00 | 0.00 | 80 | 997.2 |
| 20260831202938 | 81 | 276 | 0.0 | 8.0 | 0.00 | 0.00 | 0.00 | 80 | 997.2 |
| 20260831202918 | 81 | 222 | 1.0 | 8.0 | 0.00 | 0.00 | 0.00 | 80 | 997.2 |
| 20260831202437 | 81 | 96 | 2.0 | 5.0 | 0.00 | 0.00 | 0.00 | 81 | 997.3 |
| 20260831202408 | 81 | 103 | 1.0 | 5.0 | 0.00 | 0.00 | 0.00 | 81 | 997.3 |
| 20260831201937 | 81 | 351 | 3.0 | 11.0 | 0.00 | 0.00 | 0.00 | 81 | 997.3 |
| 20260831201859 | 81 | 93 | 7.0 | 11.0 | 0.00 | 0.00 | 0.00 | 82 | 997.3 |
| 20260831201437 | 81 | 49 | 0.0 | 1.0 | 0.00 | 0.00 | 0.00 | 82 | 997.3 |
| 20260831200937 | 81 | 335 | 0.0 | 5.0 | 0.00 | 0.00 | 0.00 | 82 | 997.3 |
| 20260831200838 | 81 | 360 | 0.0 | 5.0 | 0.00 | 0.00 | 0.00 | 82 | 997.4 |
| 20260831200437 | 81 | 226 | 1.0 | 2.0 | 0.00 | 0.00 | 0.00 | 82 | 997.4 |
| 20260831200329 | 81 | 267 | 0.0 | 2.0 | 0.00 | 0.00 | 0.00 | 82 | 997.5 |
| 20260831195937 | 81 | 218 | 1.0 | 3.0 | 0.00 | 0.00 | 0.00 | 82 | 997.5 |
| 20260831195437 | 81 | 202 | 2.0 | 5.0 | 0.00 | 0.00 | 0.00 | 82 | 997.5 |
| 20260831195309 | 81 | 209 | 4.0 | 7.0 | 0.00 | 0.00 | 0.00 | 82 | 997.6 |
| 20260831194936 | 81 | 215 | 4.0 | 7.0 | 0.00 | 0.00 | 0.00 | 82 | 997.6 |
| 20260831194758 | 81 | 200 | 2.0 | 4.0 | 0.00 | 0.00 | 0.00 | 82 | 997.6 |
| 20260831194437 | 81 | 229 | 1.0 | 3.0 | 0.00 | 0.00 | 0.00 | 82 | 997.6 |
| 20260831194248 | 81 | 67 | 0.0 | 4.0 | 0.00 | 0.00 | 0.00 | 82 | 997.6 |
| 20260831193937 | 81 | 108 | 1.0 | 10.0 | 0.00 | 0.00 | 0.00 | 82 | 997.6 |
| 20260831193738 | 81 | 106 | 5.0 | 10.0 | 0.00 | 0.00 | 0.00 | 82 | 997.6 |
| 20260831193436 | 81 | 109 | 3.0 | 6.0 | 0.00 | 0.00 | 0.00 | 82 | 997.6 |
| 20260831193228 | 81 | 31 | 4.0 | 6.0 | 0.00 | 0.00 | 0.00 | 82 | 997.6 |
| 20260831192937 | 81 | 9 | 2.0 | 5.0 | 0.00 | 0.00 | 0.00 | 82 | 997.6 |
| 20260831192717 | 81 | 319 | 0.0 | 7.0 | 0.00 | 0.00 | 0.00 | 82 | 997.6 |
| 20260831192436 | 81 | 322 | 1.0 | 7.0 | 0.00 | 0.00 | 0.00 | 82 | 997.6 |
| 20260831192208 | 81 | 238 | 3.0 | 5.0 | 0.00 | 0.00 | 0.00 | 82 | 997.6 |
| 20260831191937 | 81 | 278 | 2.0 | 7.0 | 0.00 | 0.00 | 0.00 | 82 | 997.7 |
| 20260831191658 | 81 | 218 | 3.0 | 7.0 | 0.00 | 0.00 | 0.00 | 82 | 997.7 |
| 20260831191437 | 81 | 225 | 0.0 | 4.0 | 0.00 | 0.00 | 0.00 | 82 | 997.7 |
| 20260831191147 | 81 | 338 | 0.0 | 4.0 | 0.00 | 0.00 | 0.00 | 82 | 997.7 |
| 20260831190936 | 81 | 277 | 1.0 | 5.0 | 0.00 | 0.00 | 0.00 | 82 | 997.7 |
| 20260831190638 | 81 | 272 | 2.0 | 8.0 | 0.00 | 0.00 | 0.00 | 81 | 997.7 |
| 20260831190437 | 81 | 185 | 5.0 | 8.0 | 0.00 | 0.00 | 0.00 | 81 | 997.7 |
| 20260831190128 | 81 | 267 | 3.0 | 7.0 | 0.00 | 0.00 | 0.00 | 81 | 997.8 |
| 20260831185936 | 81 | 248 | 3.0 | 8.0 | 0.00 | 0.00 | 0.00 | 81 | 997.7 |
| 20260831185617 | 81 | 166 | 5.0 | 8.0 | 0.00 | 0.00 | 0.00 | 81 | 997.7 |
| 20260831185436 | 81 | 243 | 1.0 | 3.0 | 0.00 | 0.00 | 0.00 | 81 | 997.8 |